This is the latest recevied weather packets stored in our database for station/object DOUGLAS. If no packets are shown the sender has not sent any weather packets the latest 10 day(s).
| Time | Temp. | Humidity | Pressure | Rain* | Wind** | Luminosity | Snow |
|---|---|---|---|---|---|---|---|
| 1788636003 | 16.67° C | 65% | 0 hPa | - | - | - | - |
| 1788635403 | 16.11° C | 79% | 0 hPa | - | - | - | - |
| 1788634803 | 16.67° C | 69% | 0 hPa | - | - | - | - |
| 1788634203 | 16.67° C | 82% | 0 hPa | - | - | - | - |
| 1788633603 | 16.11° C | 82% | 0 hPa | - | - | - | - |
| 1788633003 | 15° C | 82% | 0 hPa | - | - | - | - |
| 1788632403 | 15° C | 84% | 0 hPa | - | - | - | - |
| 1788631802 | 14.44° C | 88% | 0 hPa | - | - | - | - |
| 1788631203 | 13.89° C | 88% | 0 hPa | - | - | - | - |
| 1788630603 | 13.89° C | 92% | 0 hPa | - | - | - | - |
| 1788630003 | 13.89° C | 93% | 0 hPa | - | - | - | - |
| 1788629403 | 13.33° C | 94% | 0 hPa | - | - | - | - |
| 1788628803 | 13.33° C | 96% | 0 hPa | - | - | - | - |
| 1788628203 | 12.78° C | 97% | 0 hPa | - | - | - | - |
| 1788627002 | 12.22° C | 99% | 0 hPa | - | - | - | - |
| 1788626403 | 11.67° C | 99% | 0 hPa | - | - | - | - |
| 1788625803 | 11.67° C | 99% | 0 hPa | - | - | - | - |
| 1788625203 | 11.67° C | 99% | 0 hPa | - | - | - | - |
| 1788624603 | 11.11° C | 99% | 0 hPa | - | - | - | - |
| 1788624004 | 11.11° C | 99% | 0 hPa | - | - | - | - |
| 1788622803 | 10.56° C | 99% | 0 hPa | - | - | - | - |
| 1788612603 | 8.89° C | 99% | 0 hPa | - | - | - | - |
| 1788612003 | 8.89° C | 99% | 0 hPa | - | - | - | - |
| 1788608403 | 9.44° C | 99% | 0 hPa | - | - | - | - |
| 1788607803 | 9.44° C | 99% | 0 hPa | - | - | - | - |
* Rain since midnight (hover to see other rain measurements)
** Current wind speed in m/s (hover to see current wind gust speed)